Orbital Elements at Epoch 2459000.5 (2020-May-31.0) TDB
Reference: JPL 27 (heliocentric ecliptic J2000)
Element | Value | Uncertainty (1-sigma) | Units |
e | .129588728637751 | 3.6848e-08 | |
a | 2.31063637744796 | 7.8298e-09 | au |
q | 2.01120394695034 | 8.6338e-08 | au |
i | 7.326202362074407 | 4.4584e-06 | deg |
node | .2610659923152733 | 3.1581e-05 | deg |
peri | 16.99814718535825 | 3.6018e-05 | deg |
M | 30.60767845363783 | 1.7306e-05 | deg |
tp | 2458891.425375662514 (2020-Feb-11.92537566) | 6.1601e-05 | TDB |
period | 1282.908954397611 3.51 | 6.5209e-06 1.785e-08 | d yr |
n | .2806122747572822 | 1.4263e-09 | deg/d |
Q | 2.61006880794558 | 8.8445e-09 | au |
|
| | Orbit Determination Parameters
Additional Information
|